Change the Weather History Date:

Friday, March 8, 2013

  Actual Average Record
Temperature  
Mean Temperature 45 °F -  
Max Temperature 62 °F 58 °F 75 °F (2009)
Min Temperature 28 °F 39 °F 28 °F (2013)
Degree Days  
Heating Degree Days 20    
Moisture  
Dew Point 18 °F    
Average Humidity 40    
Maximum Humidity 75    
Minimum Humidity 12    
Precipitation  
Precipitation 0.00 in - - ()
Sea Level Pressure  
Sea Level Pressure 30.27 in    
Wind  
Wind Speed 6 mph (NE)    
Max Wind Speed 13 mph    
Max Gust Speed 20 mph    
Visibility 10 miles    
Events      
Averages and records for this station are not official NWS values.
T = Trace of Precipitation, MM = Missing Value Source: NWS Daily Summary

Daily Weather History Graph

Daily Weather History Graph

Search for Another Location

Airport or City:

Trip Planner

Search our weather history database for the weather conditions in past years. The results will help you decide how hot, cold, wet, or windy it might be!

Date:

Astronomy

Mar. 08, 2013 Rise Set
Actual Time 6:49 AM EST 6:31 PM EST
Civil Twilight 6:23 AM EST 6:56 PM EST
Nautical Twilight 5:54 AM EST 7:25 PM EST
Astronomical Twilight 5:25 AM EST 7:55 PM EST
Moon 4:26 AM EST (3/8) 3:30 PM EST (3/8)
Length of Visible Light 12h 32m
Length of Day
11h 42m
Waning Crescent, 12% of the Moon is Illuminated
Mar 8
Waning Crescent
Mar 11
New
Mar 19
First Quarter
Mar 27
Full
Apr 3
Last Quarter

Hourly Weather History & Observations

Time (EST) Temp. Windchill Dew Point Humidity Pressure Visibility Wind Dir Wind Speed Gust Speed Precip Events Conditions
12:53 AM 37.0 °F 30.4 °F 23.0 °F 57% 30.25 in 10.0 mi East 9.2 mph - N/A   Clear
1:53 AM 35.1 °F 29.3 °F 23.0 °F 61% 30.25 in 10.0 mi ENE 6.9 mph - N/A   Clear
2:53 AM 34.0 °F 28.0 °F 23.0 °F 64% 30.26 in 10.0 mi ENE 6.9 mph - N/A   Clear
3:53 AM 33.1 °F 26.9 °F 21.9 °F 64% 30.26 in 10.0 mi NE 6.9 mph - N/A   Clear
4:53 AM 32.0 °F 27.5 °F 21.9 °F 66% 30.27 in 10.0 mi ENE 4.6 mph - N/A   Clear
5:53 AM 32.0 °F 28.7 °F 21.9 °F 66% 30.28 in 10.0 mi NE 3.5 mph - N/A   Clear
6:53 AM 28.9 °F 25.2 °F 21.9 °F 75% 30.30 in 10.0 mi West 3.5 mph - N/A   Clear
7:53 AM 35.1 °F - 24.1 °F 64% 30.31 in 10.0 mi Calm Calm - N/A   Clear
8:53 AM 39.0 °F - 23.0 °F 53% 30.33 in 10.0 mi Calm Calm - N/A   Clear
9:53 AM 42.1 °F - 23.0 °F 47% 30.33 in 10.0 mi Calm Calm - N/A   Clear
10:53 AM 46.9 °F - 21.0 °F 36% 30.32 in 10.0 mi Variable 3.5 mph - N/A   Clear
11:53 AM 53.1 °F - 19.0 °F 26% 30.29 in 10.0 mi North 4.6 mph - N/A   Clear
12:53 PM 57.9 °F - 9.0 °F 14% 30.27 in 10.0 mi North 12.7 mph 19.6 mph N/A   Clear
1:53 PM 59.0 °F - 10.9 °F 15% 30.25 in 10.0 mi NE 10.4 mph 16.1 mph N/A   Clear
2:53 PM 61.0 °F - 10.9 °F 14% 30.23 in 10.0 mi NNE 9.2 mph - N/A   Clear
3:53 PM 61.0 °F - 12.9 °F 15% 30.20 in 10.0 mi North 5.8 mph - N/A   Clear
4:53 PM 62.1 °F - 10.9 °F 13% 30.19 in 10.0 mi NE 4.6 mph - N/A   Clear
5:53 PM 60.1 °F - 6.1 °F 12% 30.22 in 10.0 mi NNE 9.2 mph - N/A   Clear
6:53 PM 55.0 °F - 15.1 °F 21% 30.24 in 10.0 mi North 9.2 mph - N/A   Clear
7:53 PM 50.0 °F - 17.1 °F 27% 30.26 in 10.0 mi North 5.8 mph - N/A   Clear
8:53 PM 48.9 °F - 17.1 °F 28% 30.29 in 10.0 mi NNE 5.8 mph - N/A   Clear
9:53 PM 48.0 °F - 19.0 °F 32% 30.28 in 10.0 mi NE 6.9 mph - N/A   Clear
10:53 PM 45.0 °F 41.2 °F 19.9 °F 37% 30.29 in 10.0 mi ENE 6.9 mph - N/A   Clear
11:53 PM 43.0 °F 38.8 °F 21.0 °F 42% 30.29 in 10.0 mi NE 6.9 mph - N/A   Clear